Погода в Биджапуре

Индия     16°49′33″N   75°43′29″E
темп.,
°C
ветер,
м/с
пор.,
м/с
влажн.,
%
обл.,
%
осадки,
мм/ч
давл.,
гПа
погр.,
м
26 сентября, вс
вс2623:30+24з6985100 6.4 1008310
02:30+23зсз5888100 2.3 1007347
05:30+22сз4691100 3.3 1007353
08:30+24сз458482 0.0 1008621
11:30+26сз667099 0.3 10071075
14:30+28сз5663100 0.4 10041170
17:30+27ссз446594 0.4 1004808
20:30+25с3475100 0.2 1006104
27 сентября, пн
пн2723:30+24зсз358179 1.5 1006121
02:30+24зсз4785100 1.0 1004206
05:30+23зсз5887100 4.4 1004255
08:30+23з6785100 0.9 1006436
11:30+24зсз5783100 3.9 1005590
14:30+23з4889100 2.9 1002452
17:30+22з5893100 10.4 1003387
20:30+22зюз81193100 3.4 1005411
28 сентября, вт
вт2823:30+21зюз91392100 5.3 1004557
02:30+21зюз91495100 5.1 1003635
05:30+21зюз91595100 9.5 1002627
08:30+21зюз101593100 2.4 1005671
11:30+23зюз111581100 2.6 1005897
14:30+24зюз101577100 0.0 10021081
17:30+23зюз8148094 0.0 1004937
20:30+22юз61387100 0.0 1006586
29 сентября, ср
ср2923:30+21ююз71389100 0.0 1007582
02:30+21ююз61289100 0.0 1006526
05:30+21ююз61291100 0.0 1007468
08:30+23юз8128259 0.0 1009804
11:30+26юз81069100 0.1 10081265
14:30+27зюз796593 0.0 10051340
17:30+27зюз686938 0.5 1006554
20:30+24юз6108361 0.6 1010340
30 сентября, чт
чт3023:30+22юз488826 0.6 1010224
02:30+21юз479270 0.0 1008230
05:30+21юз47945 0.0 1009213
08:30+23юз568235 0.0 1011425
11:30+27зюз44635 0.0 1010954
14:30+30з345480 0.0 10071710
17:30+28з2363100 0.1 100765
20:30+25з5677100 1.1 1010195